timestamp,wind_dir_avg,wind_spd_avg,wind_spd_max_dir,wind_spd_gust,battery_voltage,lat,long
2023-06-10 00:04:01+00:00,54.0,6.45,54.0,6.89,12.49,47.59359,-54.27349
2023-06-10 00:14:00+00:00,51.0,6.43,50.0,7.08,12.41,47.59359,-54.27349
2023-06-10 00:24:00+00:00,51.0,7.05,53.0,7.61,12.41,47.59359,-54.27349
2023-06-10 00:34:00+00:00,52.0,6.97,48.0,8.0,12.41,47.59359,-54.27349
2023-06-10 00:44:00+00:00,45.0,7.5,48.0,8.17,12.41,47.59359,-54.27349
2023-06-10 00:54:00+00:00,51.0,7.23,47.0,8.45,12.41,47.59359,-54.27349
2023-06-10 01:04:00+00:00,47.0,7.95,48.0,8.69,12.41,47.59359,-54.27349
2023-06-10 01:14:00+00:00,46.0,7.11,45.0,8.03,12.41,47.59359,-54.27349
2023-06-10 01:24:00+00:00,39.0,7.71,39.0,9.07,12.41,47.59359,-54.27349
2023-06-10 01:34:00+00:00,40.0,9.14,44.0,10.12,12.41,47.59359,-54.27349
2023-06-10 01:44:00+00:00,43.0,8.63,42.0,9.68,12.41,47.59359,-54.27349
2023-06-10 01:54:00+00:00,40.0,8.55,42.0,9.57,12.41,47.59359,-54.27349
2023-06-10 02:04:00+00:00,40.0,8.24,41.0,9.17,12.41,47.59359,-54.27349
2023-06-10 02:14:00+00:00,37.0,9.39,38.0,10.76,12.41,47.59359,-54.27349
2023-06-10 02:24:00+00:00,39.0,9.72,39.0,11.29,12.41,47.59359,-54.27349
2023-06-10 02:34:00+00:00,39.0,10.91,44.0,12.15,12.41,47.59359,-54.27349
2023-06-10 02:44:00+00:00,40.0,10.18,40.0,11.57,12.41,47.59359,-54.27349
2023-06-10 02:54:00+00:00,36.0,10.02,42.0,11.62,12.41,47.59359,-54.27349
2023-06-10 03:04:00+00:00,28.0,9.14,43.0,11.65,12.41,47.59359,-54.27349
2023-06-10 03:14:00+00:00,41.0,10.65,38.0,11.98,12.41,47.59359,-54.27349
2023-06-10 03:24:00+00:00,35.0,10.53,39.0,11.96,12.41,47.59359,-54.27349
2023-06-10 03:34:00+00:00,33.0,10.73,39.0,12.7,12.41,47.59359,-54.27349
2023-06-10 03:44:00+00:00,34.0,10.62,38.0,12.64,12.41,47.59359,-54.27349
2023-06-10 03:54:00+00:00,22.0,9.79,39.0,12.46,12.41,47.59359,-54.27349
2023-06-10 04:04:00+00:00,30.0,9.91,43.0,12.46,12.41,47.59359,-54.27349
2023-06-10 04:14:01+00:00,34.0,11.22,36.0,13.14,12.33,47.59359,-54.27349
2023-06-10 04:24:01+00:00,35.0,10.92,37.0,12.76,12.33,47.59359,-54.27349
2023-06-10 04:34:01+00:00,38.0,11.74,37.0,13.45,12.33,47.59359,-54.27349
2023-06-10 04:44:01+00:00,38.0,11.22,35.0,12.91,12.33,47.59359,-54.27349
2023-06-10 04:54:01+00:00,38.0,11.22,36.0,12.84,12.33,47.59359,-54.27349
2023-06-10 05:04:01+00:00,37.0,10.68,37.0,13.07,12.33,47.59359,-54.27349
2023-06-10 05:14:00+00:00,42.0,10.74,47.0,12.48,12.25,47.59359,-54.27349
2023-06-10 05:24:00+00:00,38.0,11.42,47.0,13.71,12.25,47.59359,-54.27349
2023-06-10 05:34:00+00:00,42.0,12.18,51.0,14.68,12.25,47.59359,-54.27349
2023-06-10 05:44:00+00:00,34.0,11.04,36.0,12.59,12.25,47.59359,-54.27349
2023-06-10 05:54:00+00:00,31.0,10.25,36.0,12.01,12.25,47.59359,-54.27349
2023-06-10 06:04:00+00:00,35.0,11.65,36.0,12.87,12.25,47.59359,-54.27349
2023-06-10 06:14:00+00:00,34.0,10.21,35.0,12.05,12.17,47.59359,-54.27349
2023-06-10 06:24:00+00:00,40.0,11.4,40.0,12.76,12.17,47.59359,-54.27349
2023-06-10 06:34:00+00:00,34.0,10.34,35.0,12.85,12.17,47.59359,-54.27349
2023-06-10 06:44:00+00:00,31.0,9.5,40.0,11.88,12.17,47.59359,-54.27349
2023-06-10 06:54:00+00:00,33.0,12.25,36.0,14.04,12.17,47.59359,-54.27349
2023-06-10 07:04:00+00:00,39.0,11.76,37.0,13.51,12.17,47.59359,-54.27349
2023-06-10 07:14:01+00:00,37.0,11.78,39.0,13.79,12.17,47.59359,-54.27349
2023-06-10 07:24:01+00:00,43.0,11.43,46.0,13.32,12.17,47.59359,-54.27349
2023-06-10 07:34:01+00:00,41.0,10.86,38.0,12.81,12.17,47.59359,-54.27349
2023-06-10 07:44:01+00:00,38.0,10.37,46.0,12.6,12.17,47.59359,-54.27349
2023-06-10 07:54:01+00:00,36.0,9.58,40.0,12.1,12.17,47.59359,-54.27349
2023-06-10 08:04:01+00:00,37.0,10.52,40.0,13.33,12.17,47.59359,-54.27349
2023-06-10 08:14:00+00:00,44.0,9.98,37.0,12.02,12.17,47.59359,-54.27349
2023-06-10 08:24:00+00:00,36.0,11.48,46.0,15.39,12.17,47.59359,-54.27349
2023-06-10 08:34:00+00:00,34.0,11.47,36.0,13.45,12.17,47.59359,-54.27349
2023-06-10 08:44:00+00:00,35.0,13.12,35.0,14.85,12.17,47.59359,-54.27349
2023-06-10 08:54:00+00:00,39.0,11.67,39.0,13.52,12.17,47.59359,-54.27349
2023-06-10 09:04:00+00:00,40.0,13.02,50.0,15.66,12.17,47.59359,-54.27349
2023-06-10 09:14:00+00:00,32.0,12.3,34.0,14.21,12.17,47.59359,-54.27349
2023-06-10 09:24:00+00:00,35.0,12.13,44.0,13.82,12.17,47.59359,-54.27349
2023-06-10 09:34:00+00:00,31.0,12.96,33.0,15.06,12.17,47.59359,-54.27349
2023-06-10 09:44:00+00:00,13.0,10.98,18.0,12.52,12.17,47.59359,-54.27349
2023-06-10 09:54:00+00:00,17.0,11.17,29.0,12.69,12.17,47.59359,-54.27349
2023-06-10 10:04:00+00:00,25.0,11.98,29.0,14.19,12.17,47.59359,-54.27349
2023-06-10 10:14:01+00:00,21.0,10.69,26.0,12.5,12.09,47.59359,-54.27349
2023-06-10 10:24:01+00:00,24.0,11.86,26.0,14.33,12.09,47.59359,-54.27349
2023-06-10 10:34:01+00:00,24.0,7.01,32.0,8.57,12.09,47.59359,-54.27349
2023-06-10 10:44:01+00:00,43.0,13.14,43.0,16.96,12.09,47.59359,-54.27349
2023-06-10 10:54:01+00:00,42.0,12.29,44.0,15.24,12.09,47.59359,-54.27349
2023-06-10 11:04:01+00:00,33.0,10.39,35.0,12.8,12.09,47.59359,-54.27349
2023-06-10 11:14:00+00:00,45.0,9.47,43.0,11.15,12.17,47.59359,-54.27349
2023-06-10 11:24:00+00:00,48.0,9.48,48.0,11.0,12.17,47.59359,-54.27349
2023-06-10 11:34:00+00:00,35.0,10.45,37.0,12.7,12.17,47.59359,-54.27349
2023-06-10 11:44:00+00:00,31.0,10.5,37.0,12.51,12.17,47.59359,-54.27349
2023-06-10 11:54:00+00:00,26.0,8.89,43.0,10.92,12.17,47.59359,-54.27349
2023-06-10 12:04:00+00:00,34.0,9.53,40.0,12.11,12.17,47.59359,-54.27349
2023-06-10 12:14:00+00:00,35.0,10.64,36.0,11.95,12.49,47.59359,-54.27349
2023-06-10 12:24:00+00:00,34.0,8.68,38.0,10.19,12.49,47.59359,-54.27349
2023-06-10 12:34:00+00:00,39.0,6.2,36.0,7.11,12.49,47.59359,-54.27349
2023-06-10 12:44:00+00:00,34.0,6.26,36.0,7.31,12.49,47.59359,-54.27349
2023-06-10 12:54:00+00:00,36.0,6.4,35.0,7.2,12.49,47.59359,-54.27349
2023-06-10 13:04:00+00:00,36.0,8.41,33.0,9.42,12.49,47.59359,-54.27349
2023-06-10 13:14:00+00:00,33.0,9.23,34.0,10.61,13.37,47.59359,-54.27349
2023-06-10 13:24:00+00:00,34.0,8.25,24.0,10.17,13.37,47.59359,-54.27349
2023-06-10 13:34:00+00:00,35.0,7.94,30.0,9.01,13.37,47.59359,-54.27349
2023-06-10 13:44:00+00:00,38.0,7.13,36.0,8.09,13.37,47.59359,-54.27349
2023-06-10 13:54:00+00:00,40.0,6.01,38.0,6.69,13.37,47.59359,-54.27349
2023-06-10 14:04:00+00:00,39.0,6.33,46.0,6.94,13.37,47.59359,-54.27349
2023-06-10 14:14:00+00:00,39.0,6.93,40.0,7.7,13.6,47.59359,-54.27349
2023-06-10 14:24:00+00:00,39.0,7.31,39.0,7.96,13.6,47.59359,-54.27349
2023-06-10 14:34:00+00:00,40.0,6.97,38.0,7.71,13.6,47.59359,-54.27349
2023-06-10 14:44:00+00:00,37.0,6.33,37.0,7.1,13.6,47.59359,-54.27349
2023-06-10 14:54:00+00:00,39.0,6.22,40.0,6.97,13.6,47.59359,-54.27349
2023-06-10 15:04:00+00:00,36.0,6.01,38.0,7.04,13.6,47.59359,-54.27349
2023-06-10 15:14:00+00:00,29.0,6.1,32.0,6.66,13.6,47.59359,-54.27349
2023-06-10 15:24:00+00:00,34.0,6.71,34.0,7.64,13.6,47.59359,-54.27349
2023-06-10 15:34:00+00:00,30.0,5.73,32.0,6.24,13.6,47.59359,-54.27349
2023-06-10 15:44:00+00:00,29.0,5.13,31.0,5.73,13.6,47.59359,-54.27349
2023-06-10 15:54:00+00:00,39.0,4.59,47.0,5.26,13.6,47.59359,-54.27349
2023-06-10 16:04:00+00:00,33.0,3.44,50.0,4.38,13.6,47.59359,-54.27349
2023-06-10 16:14:00+00:00,33.0,2.74,47.0,3.5,13.6,47.59359,-54.27349
2023-06-10 16:24:00+00:00,40.0,2.43,57.0,3.42,13.6,47.59359,-54.27349
2023-06-10 16:34:00+00:00,46.0,2.63,68.0,5.68,13.6,47.59359,-54.27349
2023-06-10 16:44:00+00:00,31.0,1.7,42.0,2.28,13.6,47.59359,-54.27349
2023-06-10 16:54:00+00:00,27.0,1.53,27.0,1.69,13.6,47.59359,-54.27349
2023-06-10 17:04:00+00:00,34.0,1.67,43.0,2.09,13.6,47.59359,-54.27349
2023-06-10 17:14:00+00:00,55.0,3.54,66.0,4.54,13.37,47.59359,-54.27349
2023-06-10 17:24:00+00:00,70.0,3.8,77.0,5.96,13.37,47.59359,-54.27349
2023-06-10 17:34:00+00:00,58.0,5.86,60.0,6.66,13.37,47.59359,-54.27349
2023-06-10 17:44:00+00:00,11.0,2.34,9.0,2.68,13.37,47.59359,-54.27349
2023-06-10 17:54:00+00:00,31.0,1.15,29.0,1.28,13.37,47.59359,-54.27349
2023-06-10 18:04:00+00:00,43.0,0.91,41.0,1.11,13.37,47.59359,-54.27349
2023-06-10 18:14:00+00:00,55.0,0.81,72.0,1.26,13.6,47.59359,-54.27349
2023-06-10 18:24:00+00:00,48.0,0.72,43.0,1.05,13.6,47.59359,-54.27349
2023-06-10 18:34:00+00:00,84.0,0.53,81.0,0.73,13.6,47.59359,-54.27349
2023-06-10 18:44:00+00:00,193.0,2.05,195.0,2.34,13.6,47.59359,-54.27349
2023-06-10 18:54:00+00:00,190.0,2.26,188.0,2.53,13.6,47.59359,-54.27349
2023-06-10 19:04:00+00:00,198.0,3.68,207.0,3.93,13.6,47.59359,-54.27349
2023-06-10 19:14:01+00:00,231.0,4.2,244.0,5.87,13.68,47.59359,-54.27349
2023-06-10 19:24:01+00:00,236.0,3.23,251.0,5.23,13.68,47.59359,-54.27349
2023-06-10 19:34:01+00:00,205.0,2.73,225.0,3.44,13.68,47.59359,-54.27349
2023-06-10 19:44:01+00:00,223.0,5.93,234.0,7.08,13.68,47.59359,-54.27349
2023-06-10 19:54:01+00:00,220.0,4.89,229.0,5.82,13.68,47.59359,-54.27349
2023-06-10 20:04:01+00:00,232.0,4.19,243.0,5.03,13.68,47.59359,-54.27349
2023-06-10 20:14:01+00:00,253.0,3.55,258.0,4.2,13.68,47.59359,-54.27349
2023-06-10 20:24:01+00:00,301.0,5.16,302.0,5.63,13.68,47.59359,-54.27349
2023-06-10 20:34:01+00:00,290.0,4.33,289.0,4.66,13.68,47.59359,-54.27349
2023-06-10 20:44:01+00:00,289.0,5.44,296.0,6.23,13.68,47.59359,-54.27349
2023-06-10 20:54:01+00:00,296.0,5.03,299.0,5.4,13.68,47.59359,-54.27349
2023-06-10 21:04:01+00:00,307.0,5.47,316.0,6.44,13.68,47.59359,-54.27349
2023-06-10 21:14:01+00:00,302.0,5.64,299.0,6.67,13.44,47.59359,-54.27349
2023-06-10 21:24:01+00:00,310.0,4.51,307.0,5.05,13.44,47.59359,-54.27349
2023-06-10 21:34:01+00:00,308.0,5.34,311.0,5.65,13.44,47.59359,-54.27349
2023-06-10 21:44:01+00:00,306.0,5.67,309.0,6.98,13.44,47.59359,-54.27349
2023-06-10 21:54:01+00:00,313.0,5.8,315.0,6.7,13.44,47.59359,-54.27349
2023-06-10 22:04:01+00:00,308.0,4.77,311.0,5.99,13.44,47.59359,-54.27349
2023-06-10 22:14:01+00:00,312.0,6.02,316.0,7.32,13.29,47.59359,-54.27349
2023-06-10 22:24:01+00:00,302.0,4.68,304.0,5.21,13.29,47.59359,-54.27349
2023-06-10 22:34:01+00:00,313.0,5.25,313.0,6.16,13.29,47.59359,-54.27349
2023-06-10 22:44:01+00:00,301.0,3.87,306.0,4.39,13.29,47.59359,-54.27349
2023-06-10 22:54:01+00:00,303.0,5.0,298.0,6.36,13.29,47.59359,-54.27349
2023-06-10 23:04:01+00:00,316.0,6.31,312.0,7.4,13.29,47.59359,-54.27349
2023-06-10 23:14:01+00:00,319.0,5.02,321.0,5.59,12.73,47.59359,-54.27349
2023-06-10 23:24:01+00:00,310.0,5.57,308.0,6.64,12.73,47.59359,-54.27349
2023-06-10 23:34:01+00:00,304.0,5.78,305.0,6.51,12.73,47.59359,-54.27349
2023-06-10 23:44:01+00:00,297.0,4.17,294.0,4.62,12.73,47.59359,-54.27349
2023-06-10 23:54:01+00:00,294.0,6.15,300.0,6.9,12.73,47.59359,-54.27349
